Home   Weather   Chengdu   Past weeks
Flag for China

Past Weather in Chengdu, Sichuan, China — Yesterday and Last 2 Weeks

Now
41 °F

Light rain. Broken clouds.


Feels Like: 37 °F
Forecast: 36 / 52 °F
Wind: 6 mph from Northeast

Location: Chengdu Airport

Current Time: Dec 10, 2018 at 10:04:35 am

Latest Report: Dec 10, 2018 at 9:00 am


Visibility: N/A

Pressure: 30.27 "Hg

Humidity: 93%

Dew Point: 39 °F

Location of ChengduLocation

Past Weather in Chengdu — Graph

°F

Chengdu Temperature Yesterday

Maximum temperature yesterday: 43 °F (at 4:00 pm)
Minimum temperature yesterday: 39 °F (at 7:00 am)
Average temperature yesterday: 41 °F

High & Low Weather Summary for the Past Weeks

 TemperatureHumidityPressure
High64 °F (Nov 27, 3:00 pm)100% (Nov 25, 8:00 am)30.39 "Hg (Nov 25, 8:00 am)
Low39 °F (Dec 8, 2:00 am)46% (Nov 27, 4:00 pm)29.83 "Hg (Dec 2, 2:00 pm)
Average51 °F82%30.17 "Hg
* Reported Nov 25 8:00 am — Dec 10 8:00 am, Chengdu. Weather by CustomWeather, © 2018

Note: Actual official high and low records may vary slightly from our data, if they occured in-between our weather recording intervals... More about our weather records

Advertising

Chengdu Weather History for the Previous 24 Hours

Scroll right to see more
 ConditionsComfort  
Time TempWeatherWind HumidityBarometerVisibility
8:00 am
Mon, Dec 10
41 °FLight rain. Scattered clouds.3 mph93%30.27 "HgN/A
7:00 am41 °FLight rain. Partly cloudy.3 mph93%30.24 "Hg4 mi
6:00 am41 °FLight rain. Partly cloudy.3 mph93%30.21 "Hg4 mi
5:00 am41 °FLight rain. Partly cloudy.3 mph93%30.24 "Hg4 mi
4:00 am41 °FPartly cloudy.6 mph93%30.24 "HgN/A
3:00 am41 °FPartly cloudy.6 mph93%30.24 "HgN/A
2:00 am41 °FPartly cloudy.6 mph93%30.24 "HgN/A
1:00 am41 °FLight rain. Partly cloudy.6 mph93%30.27 "Hg5 mi
12:00 am41 °FLight rain. Partly cloudy.1 mph93%30.27 "Hg5 mi
11:00 pm
Sun, Dec 9
41 °FLight rain. Partly cloudy.3 mph93%30.27 "Hg5 mi
10:00 pm41 °FLight rain. Partly cloudy.3 mph93%30.27 "Hg5 mi
9:00 pm41 °FLight rain. Partly cloudy.3 mph93%30.27 "Hg5 mi
8:00 pm41 °FLight rain. Partly cloudy.3 mph93%30.27 "Hg5 mi
7:00 pm41 °FLight rain. Partly cloudy.3 mph93%30.24 "HgN/A
6:00 pm41 °FLight rain. Partly sunny.3 mph93%30.21 "HgN/A
5:00 pm43 °FLight rain. Partly sunny.3 mph87%30.21 "HgN/A
4:00 pm43 °FPartly sunny.1 mph87%30.21 "HgN/A
3:00 pm41 °FPartly sunny.3 mph93%30.21 "HgN/A
2:00 pm41 °FPartly sunny.1 mph93%30.21 "HgN/A
1:00 pm41 °FPartly sunny.3 mph93%30.27 "HgN/A
12:00 pm41 °FBroken clouds.3 mph93%30.33 "HgN/A
11:00 am41 °FBroken clouds.6 mph93%30.36 "HgN/A
10:00 am41 °FLight rain. Broken clouds.6 mph93%30.36 "HgN/A
Weather by CustomWeather, © 2018

See weather overview